Miscellaneous Local Product
Issued by NWS Hastings, NE

Home | Current Version | Previous Version | Text Only | Print | Product List | Glossary Off
Versions: 1 2 3 4 5 6 7 8 9 10 11 12 13 14 15 16 17 18 19 20 21 22 23 24 25 26 27 28 29 30 31 32 33 34 35 36 37 38 39 40 41 42 43 44 45 46 47 48 49 50

000
AXUS43 KGID 230602
MISGRI

GID CWA HOURLY WEATHER ROUNDUP
NATIONAL WEATHER SERVICE HASTINGS NE
100 AM CDT MON MAY 23 2016

NOTE: "FAIR" INDICATES FEW OR NO CLOUDS BELOW 12,000 FEET WITH NO
SIGNIFICANT WEATHER AND/OR OBSTRUCTIONS TO VISIBILITY.

...SOUTH CENTRAL NEBRASKA...

CITY           SKY/WX    TMP DP  RH WIND       PRES   REMARKS
GRAND ISLAND   CLOUDY    70  64  81 S25G33    29.74F
HASTINGS       CLOUDY    71  64  78 S21G30    29.75F
KEARNEY        PTCLDY    70  64  83 S29G35    29.72S
ORD            CLOUDY    71  65  81 S17G26    29.68F
YORK           CLOUDY    70  63  78 S18G29    29.79R
AURORA         CLOUDY    70  65  83 S22       29.77S
LEXINGTON      CLOUDY    69  65  84 SW17G23   29.76R
HOLDREGE       CLOUDY    69  64  85 S21G31    29.72R
HEBRON         CLOUDY    71  64  78 S18G26    29.81R

...NEBRASKA PANHANDLE...

CITY           SKY/WX    TMP DP  RH WIND       PRES   REMARKS
CHADRON        CLOUDY    53  47  79 SE6       29.79R
ALLIANCE       MOCLDY    50  45  83 CALM      29.84R
SCOTTSBLUFF    CLOUDY    53  40  61 W10       29.84R
SIDNEY         CLOUDY    54  43  66 N5        29.89R

...WESTERN AND NORTH CENTRAL NEBRASKA...

CITY           SKY/WX    TMP DP  RH WIND       PRES   REMARKS
VALENTINE      CLOUDY    55  47  74 SW3       29.78F
AINSWORTH      TSTM      56  50  80 W16       29.78S
ONEILL         CLOUDY    74  64  70 S17G31    29.70R
BROKEN BOW     LGT RAIN  63  55  75 NW26G37   29.77R
IMPERIAL       TSTM      54  48  80 N17       29.85R
NORTH PLATTE   CLOUDY    56  49  77 NW17G25   29.81R
MCCOOK         LGT RAIN  72  60  66 W15G38    29.79R

...EASTERN NEBRASKA...

CITY           SKY/WX    TMP DP  RH WIND       PRES   REMARKS
NORFOLK        MOCLDY    71  61  70 S21G30    29.75F
SO SIOUX CITY  PTCLDY    70  58  65 S15G24    29.78F
TEKAMAH        PTCLDY    68  59  73 SE14      29.81S
COLUMBUS       PTCLDY    72  57  60 S20       29.79R
ALBION         CLOUDY    71  63  75 S24G30    29.74F
OMAHA EPPLEY   MOCLDY    72  60  66 S17       29.83F
OFFUTT AFB     PTCLDY    71  61  70 SE17G24   29.83F
MILLARD        PTCLDY    72  62  72 SE15G21   29.83F
LINCOLN        CLOUDY    72  63  73 S17G26    29.81F
NEBRASKA CITY  CLOUDY    69  59  71 S15G21    29.86F
BEATRICE       MOCLDY    70  63  78 S15       29.82F
FALLS CITY     CLOUDY    69  59  70 SE14      29.86F

...NORTHERN KANSAS...

CITY           SKY/WX    TMP DP  RH WIND       PRES   REMARKS
GOODLAND       CLEAR     66  59  78 S28G36    29.76R
HILL CITY      CLOUDY    71  66  84 S24G39    29.70R
NORTON         CLEAR     68  61  77 S7        29.72R
PHILLIPSBURG   CLEAR     73  64  73 E15       29.72R
SMITH CENTER   CLOUDY    68  64  88 SE22G32   29.75R
BELOIT         PTCLDY    70  64  83 SE21G29   29.75F
HAYS           CLOUDY    70  61  73 S23       29.77F
RUSSELL        MOCLDY    71  65  81 S23G36    29.79R
CONCORDIA      CLOUDY    70  64  81 S22G32    29.79F
SALINA         MOCLDY    72  65  78 S20G29    29.81F
TOPEKA         CLOUDY    69  61  75 SE9       29.90S



USA.gov is the U.S. government's official web portal to all federal, state and local government web resources and services.